time, Switch, Flow(0), Analog(2)
yyyy/mm/dd HH:MM:SS.fff, True=FILTERED|False=TOTAL, L/min, V
2023/06/29 11:00:03.726, True, 3.979, 0.126726
2023/06/29 11:00:04.222, True, 2.695, 0.127413
2023/06/29 11:00:04.726, True, 1.990, 0.128939
2023/06/29 11:00:05.230, True, 1.658, 0.128481
2023/06/29 11:00:05.726, True, 2.022, 0.129702
2023/06/29 11:00:06.230, True, 1.658, 0.127413
2023/06/29 11:00:06.734, True, 1.659, 0.126192
2023/06/29 11:00:07.230, True, 1.349, 0.130159
2023/06/29 11:00:07.734, True, 1.656, 0.128786
2023/06/29 11:00:08.238, True, 1.656, 0.130159
2023/06/29 11:00:08.734, True, 1.686, 0.128099
2023/06/29 11:00:09.238, True, 1.657, 0.128405
2023/06/29 11:00:09.742, True, 1.992, 0.129320
2023/06/29 11:00:10.238, True, 1.683, 0.126497
2023/06/29 11:00:10.742, True, 1.658, 0.129015
2023/06/29 11:00:11.246, True, 1.989, 0.126345
2023/06/29 11:00:11.742, True, 1.685, 0.127489
2023/06/29 11:00:12.246, True, 1.661, 0.128557
2023/06/29 11:00:12.750, True, 1.655, 0.126879
2023/06/29 11:00:13.246, True, 1.685, 0.127718
2023/06/29 11:00:13.750, True, 1.990, 0.128939
2023/06/29 11:00:14.246, True, 1.685, 0.125963
2023/06/29 11:00:14.750, True, 1.658, 0.127031
2023/06/29 11:00:15.254, True, 1.326, 0.128023
2023/06/29 11:00:15.750, True, 2.022, 0.129549
2023/06/29 11:00:16.254, True, 1.660, 0.129397
2023/06/29 11:00:16.758, True, 1.656, 0.126116
2023/06/29 11:00:17.254, True, 1.348, 0.130159
2023/06/29 11:00:17.758, True, 1.658, 0.128786
2023/06/29 11:00:18.262, True, 1.990, 0.127718
2023/06/29 11:00:18.758, True, 1.684, 0.127108
2023/06/29 11:00:19.262, True, 1.658, 0.127260
2023/06/29 11:00:19.766, True, 1.658, 0.126879
2023/06/29 11:00:20.262, True, 1.685, 0.127337
2023/06/29 11:00:20.766, True, 1.658, 0.129778
2023/06/29 11:00:21.270, True, 1.991, 0.129091
2023/06/29 11:00:21.765, True, 1.683, 0.127718
2023/06/29 11:00:22.270, True, 1.659, 0.128099
2023/06/29 11:00:22.774, True, 1.990, 0.129320
2023/06/29 11:00:23.270, True, 1.684, 0.129244
2023/06/29 11:00:23.774, True, 1.989, 0.126955
2023/06/29 11:00:24.278, True, 1.658, 0.127947
2023/06/29 11:00:24.782, True, 1.658, 0.130465
2023/06/29 11:00:25.278, True, 1.685, 0.127794
2023/06/29 11:00:25.782, True, 1.659, 0.127260
2023/06/29 11:00:26.286, True, 1.988, 0.127337
2023/06/29 11:00:26.782, True, 1.685, 0.129015
2023/06/29 11:00:27.286, True, 1.658, 0.129397
2023/06/29 11:00:27.790, True, 1.659, 0.129702
2023/06/29 11:00:28.294, True, 1.658, 0.130236
2023/06/29 11:00:28.789, True, 1.684, 0.129320
2023/06/29 11:00:29.294, True, 1.990, 0.127642
2023/06/29 11:00:29.798, True, 1.326, 0.128328
2023/06/29 11:00:30.294, True, 1.686, 0.126802
2023/06/29 11:00:30.798, True, 1.988, 0.130083
2023/06/29 11:00:31.302, True, 1.658, 0.126726
2023/06/29 11:00:31.798, True, 1.685, 0.127794
2023/06/29 11:00:32.302, True, 1.658, 0.128099
2023/06/29 11:00:32.806, True, 1.658, 0.128557
2023/06/29 11:00:33.302, True, 1.686, 0.126116
2023/06/29 11:00:33.806, True, 1.656, 0.126192
2023/06/29 11:00:34.310, True, 1.990, 0.126650
2023/06/29 11:00:34.806, True, 1.686, 0.128023
2023/06/29 11:00:35.310, True, 1.657, 0.128023
2023/06/29 11:00:35.806, True, 1.687, 0.126955
2023/06/29 11:00:36.310, True, 1.656, 0.127871
2023/06/29 11:00:36.814, True, 1.658, 0.127031
2023/06/29 11:00:37.310, True, 1.685, 0.128405
2023/06/29 11:00:37.814, True, 1.657, 0.130388
2023/06/29 11:00:38.310, True, 1.685, 0.131075
2023/06/29 11:00:38.813, True, 1.660, 0.128099
2023/06/29 11:00:39.318, True, 1.656, 0.129473
2023/06/29 11:00:39.813, True, 1.685, 0.128862
2023/06/29 11:00:40.318, True, 1.658, 0.127794
2023/06/29 11:00:40.822, True, 1.658, 0.128786
2023/06/29 11:00:41.318, True, 2.022, 0.129320
2023/06/29 11:00:41.822, True, 1.658, 0.129244
2023/06/29 11:00:42.326, True, 1.658, 0.130159
2023/06/29 11:00:42.830, True, 1.660, 0.130465
2023/06/29 11:00:43.326, True, 1.683, 0.128099
2023/06/29 11:00:43.830, True, 1.658, 0.132219
2023/06/29 11:00:44.334, True, 1.990, 0.131075
2023/06/29 11:00:44.830, True, 1.684, 0.131991
2023/06/29 11:00:45.334, True, 1.658, 0.133745
2023/06/29 11:00:45.838, True, 1.990, 0.132067
2023/06/29 11:00:46.334, True, 1.685, 0.131991
2023/06/29 11:00:46.838, True, 1.658, 0.132525
2023/06/29 11:00:47.342, True, 1.990, 0.130541
2023/06/29 11:00:47.838, True, 1.684, 0.133364
2023/06/29 11:00:48.342, True, 1.658, 0.131914
2023/06/29 11:00:48.846, True, 1.992, 0.132448
2023/06/29 11:00:49.342, True, 1.685, 0.131075
2023/06/29 11:00:49.846, True, 1.656, 0.132677
2023/06/29 11:00:50.350, True, 1.990, 0.131685
2023/06/29 11:00:50.846, True, 1.684, 0.134051
2023/06/29 11:00:51.350, True, 1.658, 0.133364
2023/06/29 11:00:51.853, True, 1.658, 0.135576
2023/06/29 11:00:52.350, True, 1.685, 0.133516
2023/06/29 11:00:52.854, True, 1.658, 0.133745
2023/06/29 11:00:53.358, True, 1.989, 0.133822
2023/06/29 11:00:53.862, True, 1.658, 0.135119
2023/06/29 11:00:54.358, True, 1.685, 0.135424
2023/06/29 11:00:54.862, True, 1.989, 0.134508
2023/06/29 11:00:55.366, True, 1.658, 0.134737
2023/06/29 11:00:55.862, True, 2.022, 0.135500
2023/06/29 11:00:56.366, True, 1.658, 0.135119
2023/06/29 11:00:56.870, True, 1.990, 0.133288
2023/06/29 11:00:57.366, True, 1.685, 0.134737
2023/06/29 11:00:57.870, True, 1.659, 0.134737
2023/06/29 11:00:58.365, True, 1.683, 0.136721
2023/06/29 11:00:58.870, True, 1.658, 0.134051
2023/06/29 11:00:59.374, True, 1.990, 0.134966
2023/06/29 11:00:59.870, True, 1.685, 0.138170
2023/06/29 11:01:00.374, True, 1.658, 0.136492
2023/06/29 11:01:00.878, True, 1.659, 0.135119
2023/06/29 11:01:01.374, True, 1.683, 0.135805
2023/06/29 11:01:01.878, True, 1.990, 0.136187
2023/06/29 11:01:02.382, True, 1.326, 0.136110
2023/06/29 11:01:02.878, True, 1.685, 0.134966
2023/06/29 11:01:03.382, True, 1.658, 0.132982
2023/06/29 11:01:03.886, True, 1.658, 0.135348
2023/06/29 11:01:04.382, True, 1.685, 0.136110
2023/06/29 11:01:04.886, True, 1.990, 0.135805
2023/06/29 11:01:05.390, True, 1.658, 0.133669
2023/06/29 11:01:05.886, True, 1.685, 0.136797
2023/06/29 11:01:06.390, True, 1.990, 0.137179
2023/06/29 11:01:06.886, True, 1.685, 0.136110
2023/06/29 11:01:07.390, True, 1.658, 0.136110
2023/06/29 11:01:07.894, True, 1.658, 0.137942
2023/06/29 11:01:08.390, True, 2.022, 0.136416
2023/06/29 11:01:08.894, True, 1.658, 0.136873
2023/06/29 11:01:09.398, True, 1.658, 0.137636
2023/06/29 11:01:09.894, True, 1.688, 0.134051
2023/06/29 11:01:10.398, True, 1.655, 0.136645
2023/06/29 11:01:10.902, True, 1.990, 0.137102
2023/06/29 11:01:11.398, True, 1.685, 0.137484
2023/06/29 11:01:11.902, True, 1.658, 0.137331
2023/06/29 11:01:12.406, True, 1.659, 0.137713
2023/06/29 11:01:12.902, True, 1.684, 0.136645
2023/06/29 11:01:13.406, True, 1.658, 0.137255
2023/06/29 11:01:13.910, True, 1.990, 0.137407
2023/06/29 11:01:14.406, True, 1.685, 0.135042
2023/06/29 11:01:14.910, True, 1.658, 0.134279
2023/06/29 11:01:15.413, True, 1.659, 0.134737
2023/06/29 11:01:15.917, True, 1.658, 0.135424
2023/06/29 11:01:16.414, True, 1.348, 0.136797
2023/06/29 11:01:16.918, True, 1.661, 0.135576
2023/06/29 11:01:17.422, True, 1.655, 0.135271
2023/06/29 11:01:17.918, True, 1.685, 0.135882
2023/06/29 11:01:18.422, True, 1.658, 0.134127
2023/06/29 11:01:18.926, True, 1.659, 0.135958
2023/06/29 11:01:19.421, True, 1.683, 0.138094
2023/06/29 11:01:19.925, True, 1.990, 0.138476
2023/06/29 11:01:20.421, True, 1.685, 0.136568
2023/06/29 11:01:20.925, True, 1.658, 0.135500
2023/06/29 11:01:21.429, True, 1.661, 0.135958
2023/06/29 11:01:21.925, True, 1.682, 0.136950
2023/06/29 11:01:22.430, True, 1.658, 0.137484
2023/06/29 11:01:22.934, True, 1.992, 0.135042
2023/06/29 11:01:23.429, True, 1.682, 0.136110
2023/06/29 11:01:23.934, True, 1.658, 0.136721
2023/06/29 11:01:24.438, True, 1.661, 0.138857
2023/06/29 11:01:24.942, True, 1.986, 0.136263
2023/06/29 11:01:25.438, True, 1.685, 0.135729
2023/06/29 11:01:25.942, True, 1.660, 0.136873
2023/06/29 11:01:26.446, True, 1.987, 0.137102
2023/06/29 11:01:26.942, True, 1.348, 0.136797
2023/06/29 11:01:27.446, True, 1.994, 0.137255
2023/06/29 11:01:27.950, True, 1.656, 0.135500
2023/06/29 11:01:28.446, True, 1.683, 0.136263
2023/06/29 11:01:28.950, True, 1.990, 0.136568
2023/06/29 11:01:29.454, True, 1.659, 0.136645
2023/06/29 11:01:29.950, True, 2.025, 0.134585
2023/06/29 11:01:30.454, True, 1.324, 0.134966
2023/06/29 11:01:30.958, True, 1.989, 0.134813
2023/06/29 11:01:31.462, True, 1.659, 0.137636
2023/06/29 11:01:31.958, True, 1.684, 0.138018
2023/06/29 11:01:32.462, True, 1.657, 0.137484
2023/06/29 11:01:32.958, True, 1.685, 0.137331
2023/06/29 11:01:33.462, True, 1.990, 0.136187
2023/06/29 11:01:33.966, True, 1.658, 0.135271
2023/06/29 11:01:34.462, True, 1.684, 0.134813
2023/06/29 11:01:34.966, True, 1.658, 0.135271
2023/06/29 11:01:35.470, True, 1.989, 0.137942
2023/06/29 11:01:35.966, True, 1.686, 0.136339
2023/06/29 11:01:36.470, True, 1.660, 0.138628
2023/06/29 11:01:36.974, True, 1.986, 0.136339
2023/06/29 11:01:37.470, True, 1.685, 0.136263
2023/06/29 11:01:37.974, True, 1.658, 0.136263
2023/06/29 11:01:38.478, True, 1.658, 0.133822
2023/06/29 11:01:38.974, True, 2.024, 0.135882
2023/06/29 11:01:39.478, True, 1.656, 0.137255
2023/06/29 11:01:39.974, True, 1.685, 0.137179
2023/06/29 11:01:40.478, True, 1.658, 0.135195
2023/06/29 11:01:40.982, True, 1.990, 0.136416
2023/06/29 11:01:41.478, True, 1.685, 0.135576
2023/06/29 11:01:41.982, True, 1.658, 0.138018
2023/06/29 11:01:42.486, True, 1.658, 0.135576
2023/06/29 11:01:42.982, True, 1.685, 0.136797
2023/06/29 11:01:43.486, True, 1.658, 0.135576
2023/06/29 11:01:43.982, True, 2.022, 0.136110
2023/06/29 11:01:44.486, True, 1.658, 0.135653
2023/06/29 11:01:44.990, True, 1.658, 0.136187
2023/06/29 11:01:45.486, True, 1.685, 0.136950
2023/06/29 11:01:45.989, True, 1.658, 0.136263
2023/06/29 11:01:46.494, True, 1.658, 0.137179
2023/06/29 11:01:46.990, True, 2.022, 0.134203
2023/06/29 11:01:47.494, True, 1.658, 0.134813
2023/06/29 11:01:47.998, True, 1.658, 0.136263
2023/06/29 11:01:48.494, True, 1.685, 0.134051
2023/06/29 11:01:48.998, True, 1.658, 0.136034
2023/06/29 11:01:49.502, True, 1.990, 0.134966
2023/06/29 11:01:49.998, True, 1.684, 0.135958
2023/06/29 11:01:50.502, True, 1.658, 0.137942
2023/06/29 11:01:50.998, True, 1.686, 0.135500
2023/06/29 11:01:51.502, True, 1.988, 0.134127
2023/06/29 11:01:52.006, True, 1.657, 0.135653
2023/06/29 11:01:52.501, True, 1.349, 0.136263
2023/06/29 11:01:53.006, True, 1.656, 0.136263
2023/06/29 11:01:53.502, True, 1.685, 0.135729
2023/06/29 11:01:54.006, True, 1.658, 0.134890
2023/06/29 11:01:54.510, True, 1.658, 0.135958
2023/06/29 11:01:55.006, True, 1.685, 0.135119
2023/06/29 11:01:55.510, True, 1.658, 0.135271
2023/06/29 11:01:56.014, True, 1.990, 0.135576
2023/06/29 11:01:56.510, True, 1.685, 0.135424
2023/06/29 11:01:57.014, True, 1.658, 0.135500
2023/06/29 11:01:57.518, True, 1.990, 0.133745
2023/06/29 11:01:58.014, True, 1.684, 0.135424
2023/06/29 11:01:58.518, True, 1.658, 0.136034
2023/06/29 11:01:59.022, True, 1.658, 0.134432
2023/06/29 11:01:59.518, True, 1.685, 0.133364
2023/06/29 11:02:00.022, True, 1.989, 0.135195
2023/06/29 11:02:00.518, True, 1.685, 0.134432
2023/06/29 11:02:01.022, True, 1.658, 0.136263
2023/06/29 11:02:01.526, True, 1.658, 0.137560
2023/06/29 11:02:02.030, True, 1.658, 0.135119
2023/06/29 11:02:02.526, True, 1.685, 0.135119
2023/06/29 11:02:03.030, True, 1.989, 0.133516
2023/06/29 11:02:03.534, True, 1.659, 0.133364
2023/06/29 11:02:04.030, True, 1.685, 0.134127
2023/06/29 11:02:04.534, True, 1.657, 0.136797
2023/06/29 11:02:05.038, True, 1.659, 0.136187
2023/06/29 11:02:05.534, True, 1.684, 0.136263
2023/06/29 11:02:06.038, True, 1.988, 0.134508
2023/06/29 11:02:06.542, True, 1.659, 0.135119
2023/06/29 11:02:07.038, True, 2.021, 0.136873
2023/06/29 11:02:07.542, True, 1.658, 0.135576
2023/06/29 11:02:08.046, True, 1.660, 0.133516
2023/06/29 11:02:08.542, True, 1.684, 0.136110
2023/06/29 11:02:09.046, True, 1.656, 0.135576
2023/06/29 11:02:09.542, True, 1.685, 0.134813
2023/06/29 11:02:10.046, True, 1.660, 0.135653
2023/06/29 11:02:10.549, True, 1.656, 0.135348
2023/06/29 11:02:11.054, True, 1.658, 0.135348
2023/06/29 11:02:11.550, True, 2.022, 0.134432
2023/06/29 11:02:12.054, True, 1.658, 0.135424
2023/06/29 11:02:12.558, True, 1.658, 0.137484
2023/06/29 11:02:13.054, True, 2.024, 0.132906
2023/06/29 11:02:13.557, True, 1.656, 0.137102
2023/06/29 11:02:14.062, True, 1.658, 0.134127
2023/06/29 11:02:14.558, True, 1.685, 0.132677
2023/06/29 11:02:15.062, True, 1.989, 0.135882
2023/06/29 11:02:15.566, True, 1.658, 0.139696
2023/06/29 11:02:16.062, True, 1.685, 0.136187
2023/06/29 11:02:16.566, True, 1.990, 0.133211
2023/06/29 11:02:17.070, True, 1.659, 0.135424
2023/06/29 11:02:17.565, True, 1.687, 0.133822
2023/06/29 11:02:18.070, True, 1.986, 0.135195
2023/06/29 11:02:18.574, True, 1.658, 0.134813
2023/06/29 11:02:19.070, True, 2.023, 0.134813
2023/06/29 11:02:19.574, True, 1.657, 0.136339
2023/06/29 11:02:20.078, True, 1.658, 0.137255
2023/06/29 11:02:20.574, True, 2.022, 0.135729
2023/06/29 11:02:21.078, True, 1.658, 0.133364
2023/06/29 11:02:21.582, True, 1.990, 0.135348
2023/06/29 11:02:22.077, True, 1.687, 0.135500
2023/06/29 11:02:22.582, True, 1.986, 0.132067
2023/06/29 11:02:23.086, True, 1.658, 0.135424
2023/06/29 11:02:23.582, True, 1.685, 0.134966
2023/06/29 11:02:24.086, True, 1.658, 0.134737
2023/06/29 11:02:24.590, True, 1.990, 0.133593
2023/06/29 11:02:25.086, True, 1.685, 0.135195
2023/06/29 11:02:25.590, True, 1.658, 0.133288
2023/06/29 11:02:26.094, True, 1.990, 0.135042
2023/06/29 11:02:26.590, True, 1.686, 0.133440
2023/06/29 11:02:27.093, True, 1.657, 0.132830
2023/06/29 11:02:27.598, True, 1.658, 0.133974
2023/06/29 11:02:28.102, True, 1.658, 0.133898
2023/06/29 11:02:28.597, True, 1.686, 0.134356
2023/06/29 11:02:29.102, True, 1.988, 0.136034
2023/06/29 11:02:29.606, True, 1.658, 0.132906
2023/06/29 11:02:30.102, True, 1.684, 0.135348
2023/06/29 11:02:30.606, True, 1.990, 0.136187
2023/06/29 11:02:31.109, True, 1.658, 0.134203
2023/06/29 11:02:31.606, True, 1.684, 0.134432
2023/06/29 11:02:32.110, True, 1.658, 0.135653
2023/06/29 11:02:32.614, True, 1.990, 0.135195
2023/06/29 11:02:33.110, True, 1.685, 0.134585
2023/06/29 11:02:33.614, True, 1.658, 0.134127
2023/06/29 11:02:34.118, True, 1.658, 0.134813
2023/06/29 11:02:34.622, True, 1.658, 0.134890
2023/06/29 11:02:35.118, True, 1.685, 0.133822
2023/06/29 11:02:35.622, True, 1.661, 0.133135
2023/06/29 11:02:36.125, True, 1.987, 0.134508
2023/06/29 11:02:36.622, True, 1.685, 0.133593
2023/06/29 11:02:37.126, True, 1.989, 0.134890
2023/06/29 11:02:37.630, True, 1.658, 0.134813
2023/06/29 11:02:38.126, True, 1.685, 0.134813
2023/06/29 11:02:38.630, True, 1.658, 0.133669
2023/06/29 11:02:39.134, True, 1.990, 0.133211
2023/06/29 11:02:39.630, True, 1.687, 0.134585
2023/06/29 11:02:40.134, True, 1.656, 0.131685
2023/06/29 11:02:40.638, True, 1.990, 0.133669
2023/06/29 11:02:41.134, True, 1.685, 0.138018
2023/06/29 11:02:41.638, True, 1.658, 0.133974
2023/06/29 11:02:42.142, True, 1.990, 0.131685
2023/06/29 11:02:42.646, True, 1.658, 0.132143
2023/06/29 11:02:43.142, True, 1.685, 0.134508
2023/06/29 11:02:43.646, True, 1.989, 0.135424
2023/06/29 11:02:44.150, True, 1.661, 0.130770
2023/06/29 11:02:44.646, True, 1.681, 0.133516
2023/06/29 11:02:45.150, True, 1.991, 0.133059
2023/06/29 11:02:45.654, True, 1.659, 0.134356
2023/06/29 11:02:46.150, True, 1.683, 0.133059
2023/06/29 11:02:46.654, True, 1.992, 0.133516
2023/06/29 11:02:47.157, True, 1.656, 0.132830
2023/06/29 11:02:47.661, True, 1.658, 0.136339
2023/06/29 11:02:48.158, True, 1.687, 0.133288
2023/06/29 11:02:48.661, True, 1.988, 0.133745
2023/06/29 11:02:49.165, True, 1.661, 0.132067
2023/06/29 11:02:49.662, True, 1.682, 0.134966
2023/06/29 11:02:50.165, True, 1.990, 0.132296
2023/06/29 11:02:50.669, True, 1.658, 0.135424
2023/06/29 11:02:51.165, True, 1.685, 0.134890
2023/06/29 11:02:51.669, True, 1.658, 0.134661
2023/06/29 11:02:52.173, True, 1.658, 0.135195
2023/06/29 11:02:52.669, True, 1.685, 0.134585
2023/06/29 11:02:53.173, True, 1.658, 0.132677
2023/06/29 11:02:53.678, True, 1.659, 0.134356
2023/06/29 11:02:54.173, True, 1.347, 0.133516
2023/06/29 11:02:54.678, True, 1.990, 0.137102
2023/06/29 11:02:55.182, True, 1.658, 0.133822
2023/06/29 11:02:55.678, True, 1.686, 0.135576
2023/06/29 11:02:56.182, True, 1.987, 0.132753
2023/06/29 11:02:56.686, True, 1.659, 0.134432
2023/06/29 11:02:57.182, True, 1.686, 0.134356
2023/06/29 11:02:57.686, True, 1.657, 0.136416
2023/06/29 11:02:58.182, True, 1.684, 0.133669
2023/06/29 11:02:58.686, True, 1.660, 0.134279
2023/06/29 11:02:59.190, True, 1.657, 0.130770
2023/06/29 11:02:59.694, True, 1.661, 0.133211
2023/06/29 11:03:00.190, True, 1.683, 0.133974
2023/06/29 11:03:00.694, True, 1.989, 0.131456
2023/06/29 11:03:01.198, True, 1.657, 0.132601
2023/06/29 11:03:01.694, True, 1.684, 0.135576
2023/06/29 11:03:02.198, True, 1.660, 0.133364
2023/06/29 11:03:02.702, True, 1.658, 0.133440
2023/06/29 11:03:03.198, True, 1.685, 0.132830
2023/06/29 11:03:03.702, True, 1.656, 0.134737
2023/06/29 11:03:04.206, True, 1.659, 0.133288
2023/06/29 11:03:04.702, True, 1.685, 0.133440
2023/06/29 11:03:05.206, True, 1.990, 0.134661
2023/06/29 11:03:05.710, True, 1.658, 0.132753
2023/06/29 11:03:06.206, True, 1.685, 0.135195
2023/06/29 11:03:06.710, True, 1.659, 0.132601
2023/06/29 11:03:07.214, True, 1.659, 0.132372
2023/06/29 11:03:07.710, True, 1.682, 0.131456
2023/06/29 11:03:08.214, True, 1.658, 0.132677
2023/06/29 11:03:08.718, True, 1.658, 0.132219
2023/06/29 11:03:09.214, True, 1.685, 0.131914
2023/06/29 11:03:09.718, True, 1.660, 0.132448
2023/06/29 11:03:10.214, True, 2.020, 0.133288
2023/06/29 11:03:10.718, True, 1.658, 0.134737
2023/06/29 11:03:11.222, True, 1.658, 0.133593
2023/06/29 11:03:11.718, True, 1.685, 0.132296
2023/06/29 11:03:12.222, True, 1.989, 0.132906
2023/06/29 11:03:12.726, True, 1.658, 0.133059
2023/06/29 11:03:13.222, True, 1.685, 0.133211
2023/06/29 11:03:13.726, True, 1.989, 0.132296
2023/06/29 11:03:14.230, True, 1.658, 0.133059
2023/06/29 11:03:14.726, True, 1.685, 0.132830
2023/06/29 11:03:15.230, True, 1.990, 0.134203
2023/06/29 11:03:15.734, True, 1.658, 0.132830
2023/06/29 11:03:16.230, True, 1.686, 0.134051
2023/06/29 11:03:16.734, True, 1.656, 0.131533
2023/06/29 11:03:17.238, True, 1.990, 0.131456
2023/06/29 11:03:17.742, True, 1.659, 0.132219
2023/06/29 11:03:18.238, True, 1.684, 0.135653
2023/06/29 11:03:18.742, True, 1.658, 0.136034
2023/06/29 11:03:19.246, True, 1.990, 0.133059
2023/06/29 11:03:19.742, True, 1.348, 0.136110
2023/06/29 11:03:20.246, True, 1.658, 0.133593
2023/06/29 11:03:20.749, True, 1.658, 0.132067
2023/06/29 11:03:21.246, True, 1.685, 0.133135
2023/06/29 11:03:21.750, True, 1.658, 0.131609
2023/06/29 11:03:22.254, True, 1.990, 0.132982
2023/06/29 11:03:22.750, True, 1.685, 0.132906
2023/06/29 11:03:23.253, True, 1.658, 0.132296
2023/06/29 11:03:23.758, True, 1.658, 0.132219
2023/06/29 11:03:24.254, True, 1.684, 0.131380
2023/06/29 11:03:24.758, True, 1.990, 0.130541
2023/06/29 11:03:25.262, True, 1.660, 0.132525
2023/06/29 11:03:25.758, True, 1.683, 0.132525
2023/06/29 11:03:26.262, True, 1.658, 0.133440
2023/06/29 11:03:26.758, True, 2.022, 0.131685
2023/06/29 11:03:27.262, True, 1.658, 0.133059
2023/06/29 11:03:27.766, True, 1.659, 0.130465
2023/06/29 11:03:28.270, True, 1.988, 0.134127
2023/06/29 11:03:28.766, True, 1.685, 0.132219
2023/06/29 11:03:29.270, True, 1.658, 0.131838
2023/06/29 11:03:29.774, True, 1.658, 0.131380
2023/06/29 11:03:30.270, True, 2.022, 0.129168
2023/06/29 11:03:30.774, True, 1.658, 0.131075
2023/06/29 11:03:31.270, True, 1.685, 0.133745
2023/06/29 11:03:31.774, True, 1.658, 0.132525
2023/06/29 11:03:32.278, True, 1.990, 0.130388
2023/06/29 11:03:32.781, True, 1.660, 0.133440
2023/06/29 11:03:33.277, True, 1.686, 0.133440
2023/06/29 11:03:33.782, True, 1.655, 0.131685
2023/06/29 11:03:34.286, True, 1.990, 0.132143
2023/06/29 11:03:34.782, True, 1.348, 0.132982
2023/06/29 11:03:35.286, True, 1.990, 0.133822
2023/06/29 11:03:35.790, True, 1.658, 0.132067
2023/06/29 11:03:36.286, True, 1.685, 0.132296
2023/06/29 11:03:36.790, True, 1.658, 0.131533
2023/06/29 11:03:37.294, True, 1.659, 0.133516
2023/06/29 11:03:37.790, True, 1.683, 0.131991
2023/06/29 11:03:38.294, True, 1.658, 0.130846
2023/06/29 11:03:38.789, True, 2.022, 0.131685
2023/06/29 11:03:39.294, True, 1.658, 0.133288
2023/06/29 11:03:39.798, True, 1.658, 0.131762
2023/06/29 11:03:40.294, True, 2.022, 0.132296
2023/06/29 11:03:40.798, True, 1.658, 0.132525
2023/06/29 11:03:41.302, True, 1.658, 0.133059
2023/06/29 11:03:41.798, True, 1.685, 0.134279
2023/06/29 11:03:42.302, True, 1.658, 0.131151
2023/06/29 11:03:42.805, True, 1.658, 0.133288
2023/06/29 11:03:43.301, True, 1.685, 0.133593
2023/06/29 11:03:43.806, True, 1.658, 0.130999
2023/06/29 11:03:44.310, True, 1.657, 0.132982
2023/06/29 11:03:44.806, True, 1.685, 0.133440
2023/06/29 11:03:45.310, True, 1.658, 0.132143
2023/06/29 11:03:45.814, True, 1.658, 0.133059
2023/06/29 11:03:46.318, True, 1.990, 0.132525
2023/06/29 11:03:46.814, True, 1.685, 0.132448
2023/06/29 11:03:47.318, True, 1.660, 0.132830
2023/06/29 11:03:47.814, True, 2.020, 0.131685
2023/06/29 11:03:48.318, True, 1.658, 0.130694
2023/06/29 11:03:48.822, True, 1.990, 0.131533
2023/06/29 11:03:49.318, True, 1.685, 0.131228
2023/06/29 11:03:49.822, True, 1.658, 0.131075
2023/06/29 11:03:50.326, True, 1.989, 0.131456
2023/06/29 11:03:50.830, True, 1.658, 0.133516
2023/06/29 11:03:51.326, True, 1.685, 0.132372
2023/06/29 11:03:51.830, True, 1.658, 0.132906
2023/06/29 11:03:52.334, True, 1.658, 0.134203
2023/06/29 11:03:52.830, True, 1.685, 0.129473
2023/06/29 11:03:53.334, True, 1.989, 0.133211
2023/06/29 11:03:53.838, True, 1.658, 0.130465
2023/06/29 11:03:54.334, True, 1.685, 0.131609
2023/06/29 11:03:54.838, True, 1.658, 0.132448
2023/06/29 11:03:55.342, True, 1.658, 0.131609
2023/06/29 11:03:55.838, True, 1.685, 0.129931
2023/06/29 11:03:56.342, True, 1.990, 0.130236
2023/06/29 11:03:56.845, True, 1.658, 0.132525
2023/06/29 11:03:57.342, True, 1.685, 0.132296
2023/06/29 11:03:57.846, True, 1.990, 0.130694
2023/06/29 11:03:58.350, True, 1.659, 0.132906
2023/06/29 11:03:58.846, True, 2.021, 0.132219
2023/06/29 11:03:59.350, True, 1.658, 0.130541
2023/06/29 11:03:59.854, True, 1.659, 0.132753
2023/06/29 11:04:00.350, True, 1.684, 0.130770
2023/06/29 11:04:00.854, True, 1.658, 0.130617
2023/06/29 11:04:01.358, True, 1.658, 0.130541
2023/06/29 11:04:01.854, True, 1.685, 0.130617
2023/06/29 11:04:02.358, True, 1.658, 0.130922
2023/06/29 11:04:02.861, True, 1.658, 0.131304
2023/06/29 11:04:03.358, True, 2.021, 0.133516
2023/06/29 11:04:03.862, True, 1.660, 0.134127
2023/06/29 11:04:04.366, True, 1.655, 0.131685
2023/06/29 11:04:04.870, True, 1.658, 0.132677
2023/06/29 11:04:05.366, True, 1.685, 0.130388
2023/06/29 11:04:05.870, True, 1.658, 0.132143
2023/06/29 11:04:06.374, True, 1.658, 0.132296
2023/06/29 11:04:06.870, True, 1.686, 0.130770
2023/06/29 11:04:07.374, True, 1.988, 0.131762
2023/06/29 11:04:07.870, True, 1.685, 0.131609
2023/06/29 11:04:08.374, True, 1.657, 0.133211
2023/06/29 11:04:08.878, True, 1.658, 0.133440
2023/06/29 11:04:09.374, True, 2.021, 0.131914
2023/06/29 11:04:09.878, True, 1.661, 0.131228
2023/06/29 11:04:10.382, True, 1.655, 0.133288
2023/06/29 11:04:10.878, True, 1.686, 0.130922
2023/06/29 11:04:11.382, True, 1.657, 0.130999
2023/06/29 11:04:11.886, True, 1.658, 0.131456
2023/06/29 11:04:12.382, True, 1.685, 0.129397
2023/06/29 11:04:12.886, True, 1.660, 0.131609